,,PA_Meas_PMT16A,,PR_Meas_QMR101_102,,RH_Meas_QMH101,,SR_Meas_QMS101,,TA_Meas_QMH101,,GenWind,,GenWind,
time,status,PA,status,PR,status,RH,status,SR,status,TA,status,DirAvg,status,SpdAvg,
2014-02-10, 00:00:04,VALID,915.906,VALID,0,VALID,91.1227,VALID,0,VALID,19.1568,VALID,160,VALID,1.31719,
2014-02-10, 00:01:04,VALID,915.858,VALID,0,VALID,91.2904,VALID,0,VALID,19.1373,VALID,162,VALID,1.39102,
2014-02-10, 00:02:04,VALID,915.832,VALID,0,VALID,91.542,VALID,0,VALID,19.0983,VALID,157,VALID,1.01328,
2014-02-10, 00:03:04,VALID,915.827,VALID,0,VALID,91.9308,VALID,0,VALID,19.0593,VALID,158,VALID,1.64453,
2014-02-10, 00:04:04,VALID,915.805,VALID,0,VALID,92.2205,VALID,0,VALID,18.9799,VALID,162,VALID,1.44258,
2014-02-10, 00:05:04,VALID,915.804,VALID,0,VALID,92.4339,VALID,0.107441,VALID,18.9424,VALID,155,VALID,1.17461,
2014-02-10, 00:06:04,VALID,915.801,VALID,0,VALID,92.7236,VALID,0.107441,VALID,18.8824,VALID,138,VALID,1.0582,
2014-02-10, 00:07:04,VALID,915.774,VALID,0,VALID,92.8608,VALID,0,VALID,18.9034,VALID,140,VALID,0.981641,
2014-02-10, 00:08:04,VALID,915.739,VALID,0,VALID,92.9904,VALID,0.107441,VALID,18.8449,VALID,153,VALID,1.30781,
2014-02-10, 00:09:04,VALID,915.762,VALID,0,VALID,93.0667,VALID,0,VALID,18.8658,VALID,140,VALID,1.11523,
2014-02-10, 00:10:04,VALID,915.782,VALID,0,VALID,93.0667,VALID,0,VALID,18.9034,VALID,142,VALID,1.04023,
2014-02-10, 00:11:04,VALID,915.756,VALID,0,VALID,92.8761,VALID,0,VALID,18.9438,VALID,139,VALID,1.72812,
2014-02-10, 00:12:04,VALID,915.786,VALID,0,VALID,92.594,VALID,0,VALID,19.0608,VALID,150,VALID,1.72109,
2014-02-10, 00:13:04,VALID,915.769,VALID,0,VALID,92.3196,VALID,0,VALID,19.0803,VALID,149,VALID,1.57266,
2014-02-10, 00:14:04,VALID,915.757,VALID,0,VALID,92.0527,VALID,0,VALID,19.1388,VALID,138,VALID,1.29297,
2014-02-10, 00:15:04,VALID,915.738,VALID,0,VALID,91.7707,VALID,0,VALID,19.2168,VALID,140,VALID,1.46133,
2014-02-10, 00:16:04,VALID,915.761,VALID,0,VALID,91.5267,VALID,0,VALID,19.2753,VALID,136,VALID,1.16953,
2014-02-10, 00:17:04,VALID,915.754,VALID,0,VALID,91.2447,VALID,0,VALID,19.3143,VALID,147,VALID,1.24727,
2014-02-10, 00:18:04,VALID,915.745,VALID,0,VALID,90.8787,VALID,0,VALID,19.3338,VALID,139,VALID,1.40742,
2014-02-10, 00:19:04,VALID,915.75,VALID,0,VALID,90.6043,VALID,0,VALID,19.3533,VALID,144,VALID,1.37617,
2014-02-10, 00:20:04,VALID,915.711,VALID,0,VALID,90.368,VALID,0,VALID,19.4132,VALID,138,VALID,2.00273,
2014-02-10, 00:21:04,VALID,915.722,VALID,0,VALID,90.0021,VALID,0,VALID,19.4298,VALID,141,VALID,1.20078,
2014-02-10, 00:22:04,VALID,915.687,VALID,0,VALID,89.8496,VALID,0,VALID,19.4508,VALID,135,VALID,1.63555,
2014-02-10, 00:23:04,VALID,915.699,VALID,0,VALID,89.8038,VALID,0,VALID,19.3923,VALID,150,VALID,1.28672,
2014-02-10, 00:24:04,VALID,915.679,VALID,0,VALID,89.8953,VALID,0,VALID,19.3728,VALID,150,VALID,1.38281,
2014-02-10, 00:25:04,VALID,915.718,VALID,0,VALID,89.9106,VALID,0,VALID,19.3713,VALID,153,VALID,1.02578,
2014-02-10, 00:26:04,VALID,915.682,VALID,0,VALID,90.0249,VALID,0,VALID,19.3923,VALID,144,VALID,1.34219,
2014-02-10, 00:27:04,VALID,915.681,VALID,0,VALID,90.063,VALID,0,VALID,19.3728,VALID,139,VALID,1.86953,
2014-02-10, 00:28:04,VALID,915.688,VALID,0,VALID,90.1926,VALID,0,VALID,19.3143,VALID,147,VALID,1.59219,
2014-02-10, 00:29:04,VALID,915.687,VALID,0,VALID,90.1469,VALID,0,VALID,19.3338,VALID,140,VALID,1.25469,
2014-02-10, 00:30:04,VALID,915.63,VALID,0,VALID,90.1012,VALID,0,VALID,19.3533,VALID,132,VALID,1.31797,
2014-02-10, 00:31:04,VALID,915.634,VALID,0,VALID,90.0783,VALID,0,VALID,19.3338,VALID,129,VALID,1.55195,
2014-02-10, 00:32:04,VALID,915.625,VALID,0,VALID,89.9563,VALID,0,VALID,19.3533,VALID,133,VALID,1.23086,
2014-02-10, 00:33:04,VALID,915.598,VALID,0,VALID,89.9639,VALID,0,VALID,19.3143,VALID,130,VALID,1.04922,
2014-02-10, 00:34:04,VALID,915.596,VALID,0,VALID,89.9334,VALID,0,VALID,19.3338,VALID,139,VALID,1.475,
2014-02-10, 00:35:04,VALID,915.634,VALID,0,VALID,89.8648,VALID,0,VALID,19.3338,VALID,146,VALID,1.20117,
2014-02-10, 00:36:04,VALID,915.624,VALID,0,VALID,89.7962,VALID,0,VALID,19.3338,VALID,136,VALID,0.99375,
2014-02-10, 00:37:04,VALID,915.63,VALID,0,VALID,89.8953,VALID,0,VALID,19.3143,VALID,141,VALID,1.22266,
2014-02-10, 00:38:04,VALID,915.625,VALID,0,VALID,89.9792,VALID,0,VALID,19.2948,VALID,132,VALID,1.03242,
2014-02-10, 00:39:04,VALID,915.651,VALID,0,VALID,89.9944,VALID,0,VALID,19.2363,VALID,135,VALID,1.39922,
2014-02-10, 00:40:04,VALID,915.624,VALID,0,VALID,90.0021,VALID,0,VALID,19.1973,VALID,140,VALID,1.22812,
2014-02-10, 00:41:04,VALID,915.626,VALID,0,VALID,90.1012,VALID,0,VALID,19.1973,VALID,122,VALID,0.428125,
2014-02-10, 00:42:04,VALID,915.621,VALID,0,VALID,90.2765,VALID,0,VALID,19.1388,VALID,139,VALID,0.708203,
2014-02-10, 00:43:04,VALID,915.611,VALID,0,VALID,90.124,VALID,0,VALID,19.1388,VALID,132,VALID,1.05195,
2014-02-10, 00:44:04,VALID,915.624,VALID,0,VALID,90.1698,VALID,0,VALID,19.1193,VALID,134,VALID,0.910156,
2014-02-10, 00:45:04,VALID,915.566,VALID,0,VALID,90.2536,VALID,0,VALID,19.0998,VALID,123,VALID,1.33398,
2014-02-10, 00:46:04,VALID,915.584,VALID,0,VALID,90.2155,VALID,0,VALID,19.0998,VALID,135,VALID,0.824219,
2014-02-10, 00:47:04,VALID,915.587,VALID,0,VALID,90.2841,VALID,0,VALID,19.1193,VALID,119,VALID,1.24922,
2014-02-10, 00:48:04,VALID,915.574,VALID,0,VALID,90.0478,VALID,0,VALID,19.1193,VALID,120,VALID,0.763672,
2014-02-10, 00:49:04,VALID,915.543,VALID,0,VALID,90.124,VALID,0,VALID,19.0608,VALID,116,VALID,0.832812,
2014-02-10, 00:50:04,VALID,915.527,VALID,0,VALID,90.2994,VALID,0,VALID,18.9814,VALID,117,VALID,0.521094,
2014-02-10, 00:51:04,VALID,915.514,VALID,0,VALID,90.4213,VALID,0,VALID,18.9438,VALID,119,VALID,0.680078,
2014-02-10, 00:52:04,VALID,915.51,VALID,0,VALID,90.6424,VALID,0,VALID,18.8658,VALID,119,VALID,0.754687,
2014-02-10, 00:53:04,VALID,915.485,VALID,0,VALID,91.077,VALID,0,VALID,18.8073,VALID,119,VALID,0.827734,
2014-02-10, 00:54:04,VALID,915.444,VALID,0,VALID,91.4734,VALID,0,VALID,18.7488,VALID,117,VALID,0.894531,
2014-02-10, 00:55:04,VALID,915.4,VALID,0,VALID,91.5191,VALID,0,VALID,18.7098,VALID,116,VALID,1.06992,
2014-02-10, 00:56:04,VALID,915.411,VALID,0,VALID,91.6487,VALID,0,VALID,18.7293,VALID,109,VALID,1.01602,
2014-02-10, 00:57:04,VALID,915.364,VALID,0,VALID,91.8164,VALID,0,VALID,18.6124,VALID,103,VALID,1.03672,
2014-02-10, 00:58:04,VALID,915.39,VALID,0,VALID,92.0375,VALID,0,VALID,18.5929,VALID,103,VALID,1.34492,
2014-02-10, 00:59:04,VALID,915.351,VALID,0,VALID,92.2891,VALID,0,VALID,18.5734,VALID,103,VALID,1.13242,
2014-02-10, 01:00:04,VALID,915.36,VALID,0,VALID,92.3882,VALID,0,VALID,18.5734,VALID,103,VALID,0.954687,
2014-02-10, 01:01:04,VALID,915.354,VALID,0,VALID,92.3196,VALID,0,VALID,18.5734,VALID,103,VALID,0.977734,
2014-02-10, 01:02:04,VALID,915.354,VALID,0,VALID,92.1823,VALID,0,VALID,18.5539,VALID,115,VALID,1.01523,
2014-02-10, 01:03:04,VALID,915.349,VALID,0,VALID,92.1976,VALID,0,VALID,18.5149,VALID,117,VALID,1.17969,
2014-02-10, 01:04:04,VALID,915.312,VALID,0,VALID,92.3196,VALID,0,VALID,18.5539,VALID,115,VALID,1.21094,
2014-02-10, 01:05:04,VALID,915.325,VALID,0,VALID,92.3196,VALID,0,VALID,18.533,VALID,105,VALID,1.09219,
2014-02-10, 01:06:04,VALID,915.313,VALID,0,VALID,92.2967,VALID,0,VALID,18.533,VALID,112,VALID,1.25859,
2014-02-10, 01:07:04,VALID,915.313,VALID,0,VALID,92.3043,VALID,0,VALID,18.6319,VALID,119,VALID,1.19062,
2014-02-10, 01:08:04,VALID,915.304,VALID,0,VALID,92.2967,VALID,0,VALID,18.6513,VALID,122,VALID,1.63281,
2014-02-10, 01:09:04,VALID,915.287,VALID,0,VALID,92.0527,VALID,0,VALID,18.6903,VALID,124,VALID,1.26289,
2014-02-10, 01:10:04,VALID,915.273,VALID,0,VALID,92.007,VALID,0,VALID,18.7084,VALID,131,VALID,1.62617,
2014-02-10, 01:11:04,VALID,915.232,VALID,0,VALID,91.885,VALID,0,VALID,18.7474,VALID,137,VALID,1.45547,
2014-02-10, 01:12:04,VALID,915.221,VALID,0,VALID,91.6945,VALID,0,VALID,18.7683,VALID,141,VALID,1.04688,
2014-02-10, 01:13:04,VALID,915.213,VALID,0,VALID,91.5725,VALID,0,VALID,18.7878,VALID,141,VALID,0.937891,
2014-02-10, 01:14:04,VALID,915.193,VALID,0,VALID,91.5877,VALID,0,VALID,18.8463,VALID,136,VALID,1.20391,
2014-02-10, 01:15:04,VALID,915.205,VALID,0,VALID,91.4962,VALID,0,VALID,18.8658,VALID,141,VALID,1.20039,
2014-02-10, 01:16:04,VALID,915.192,VALID,0,VALID,91.3743,VALID,0,VALID,18.8463,VALID,138,VALID,0.927344,
2014-02-10, 01:17:04,VALID,915.186,VALID,0,VALID,91.2904,VALID,0,VALID,18.8073,VALID,136,VALID,0.632813,
2014-02-10, 01:18:05,VALID,915.173,VALID,0,VALID,91.2675,VALID,0,VALID,18.8463,VALID,136,VALID,0.644531,
2014-02-10, 01:19:05,VALID,915.177,VALID,0,VALID,91.237,VALID,0,VALID,18.8658,VALID,128,VALID,0.775,
2014-02-10, 01:20:05,VALID,915.156,VALID,0,VALID,91.2599,VALID,0,VALID,18.8867,VALID,134,VALID,0.918359,
2014-02-10, 01:21:05,VALID,915.179,VALID,0,VALID,91.2218,VALID,0,VALID,18.8268,VALID,134,VALID,1.13086,
2014-02-10, 01:22:05,VALID,915.168,VALID,0,VALID,91.1913,VALID,0,VALID,18.8463,VALID,140,VALID,1.14219,
2014-02-10, 01:23:05,VALID,915.15,VALID,0,VALID,91.1684,VALID,0,VALID,18.8658,VALID,140,VALID,0.797656,
2014-02-10, 01:24:05,VALID,915.145,VALID,0,VALID,91.0998,VALID,0,VALID,18.8853,VALID,140,VALID,0.734375,
2014-02-10, 01:25:05,VALID,915.12,VALID,0,VALID,90.9626,VALID,0,VALID,18.8658,VALID,140,VALID,0.721484,
2014-02-10, 01:26:05,VALID,915.131,VALID,0,VALID,91.1227,VALID,0,VALID,18.8268,VALID,140,VALID,1.16562,
2014-02-10, 01:27:05,VALID,915.094,VALID,0,VALID,91.2294,VALID,0,VALID,18.8658,VALID,140,VALID,0.953125,
2014-02-10, 01:28:05,VALID,915.091,VALID,0,VALID,91.2142,VALID,0,VALID,18.8658,VALID,140,VALID,1.11758,
2014-02-10, 01:29:05,VALID,915.048,VALID,0,VALID,91.2218,VALID,0,VALID,18.8658,VALID,140,VALID,1.15195,
2014-02-10, 01:30:05,VALID,915.058,VALID,0,VALID,91.1532,VALID,0,VALID,18.8867,VALID,140,VALID,0.865234,
2014-02-10, 01:31:05,VALID,915.045,VALID,0,VALID,91.016,VALID,0,VALID,18.8658,VALID,140,VALID,0.596875,
2014-02-10, 01:32:05,VALID,915.026,VALID,0,VALID,90.9397,VALID,0,VALID,18.8268,VALID,140,VALID,0.796875,
2014-02-10, 01:33:05,VALID,915.031,VALID,0,VALID,90.8787,VALID,0,VALID,18.7878,VALID,140,VALID,0.454688,
2014-02-10, 01:34:05,VALID,915.01,VALID,0,VALID,91.0693,VALID,0,VALID,18.7683,VALID,140,VALID,0.411719,
2014-02-10, 01:35:05,VALID,914.979,VALID,0,VALID,91.1227,VALID,0,VALID,18.7293,VALID,140,VALID,0.539453,
2014-02-10, 01:36:05,VALID,914.984,VALID,0,VALID,91.2066,VALID,0,VALID,18.7293,VALID,140,VALID,0.666016,
2014-02-10, 01:37:05,VALID,914.963,VALID,0,VALID,91.4886,VALID,0,VALID,18.7503,VALID,140,VALID,0.669141,
2014-02-10, 01:38:05,VALID,914.997,VALID,0,VALID,91.6182,VALID,0,VALID,18.7683,VALID,140,VALID,0.819531,
2014-02-10, 01:39:05,VALID,914.978,VALID,0,VALID,91.481,VALID,0,VALID,18.7878,VALID,140,VALID,0.960547,
2014-02-10, 01:40:05,VALID,914.954,VALID,0,VALID,91.3438,VALID,0,VALID,18.8282,VALID,149,VALID,1.09687,
2014-02-10, 01:41:05,VALID,914.945,VALID,0,VALID,91.1989,VALID,0,VALID,18.8073,VALID,149,VALID,1.00898,
2014-02-10, 01:42:05,VALID,914.921,VALID,0,VALID,91.1913,VALID,0,VALID,18.8073,VALID,153,VALID,1.53281,
2014-02-10, 01:43:05,VALID,914.931,VALID,0,VALID,90.9855,VALID,0,VALID,18.8073,VALID,153,VALID,1.08359,
2014-02-10, 01:44:05,VALID,914.924,VALID,0,VALID,90.833,VALID,0,VALID,18.7683,VALID,151,VALID,0.957422,
2014-02-10, 01:45:05,VALID,914.938,VALID,0,VALID,90.7339,VALID,0,VALID,18.7098,VALID,150,VALID,0.94375,
2014-02-10, 01:46:05,VALID,914.957,VALID,0,VALID,90.9855,VALID,0,VALID,18.6109,VALID,148,VALID,1.05352,
2014-02-10, 01:47:05,VALID,914.949,VALID,0,VALID,91.2294,VALID,0,VALID,18.6124,VALID,143,VALID,1.15508,
2014-02-10, 01:48:05,VALID,914.951,VALID,0,VALID,91.4048,VALID,0,VALID,18.5734,VALID,143,VALID,0.827734,
2014-02-10, 01:49:05,VALID,914.929,VALID,0,VALID,91.5344,VALID,0,VALID,18.5358,VALID,143,VALID,0.65625,
2014-02-10, 01:50:05,VALID,914.907,VALID,0,VALID,91.7859,VALID,0,VALID,18.5163,VALID,143,VALID,0.551172,
2014-02-10, 01:51:05,VALID,914.908,VALID,0,VALID,91.9841,VALID,0,VALID,18.4759,VALID,143,VALID,0.845703,
2014-02-10, 01:52:05,VALID,914.928,VALID,0,VALID,92.1595,VALID,0,VALID,18.4759,VALID,142,VALID,0.840625,
2014-02-10, 01:53:05,VALID,914.891,VALID,0,VALID,92.1214,VALID,0,VALID,18.4759,VALID,139,VALID,0.930859,
2014-02-10, 01:54:05,VALID,914.908,VALID,0,VALID,92.1214,VALID,0,VALID,18.4759,VALID,138,VALID,1.16914,
2014-02-10, 01:55:05,VALID,914.902,VALID,0,VALID,92.2052,VALID,0,VALID,18.4954,VALID,129,VALID,0.995703,
2014-02-10, 01:56:05,VALID,914.889,VALID,0,VALID,92.1061,VALID,0,VALID,18.4759,VALID,127,VALID,1.11289,
2014-02-10, 01:57:05,VALID,914.873,VALID,0,VALID,92.3119,VALID,0,VALID,18.4759,VALID,126,VALID,1.44687,
2014-02-10, 01:58:05,VALID,914.889,VALID,0,VALID,92.3882,VALID,0,VALID,18.4759,VALID,132,VALID,1.26797,
2014-02-10, 01:59:05,VALID,914.874,VALID,0,VALID,92.3653,VALID,0,VALID,18.4564,VALID,135,VALID,1.05195,
2014-02-10, 02:00:05,VALID,914.879,VALID,0,VALID,92.3958,VALID,0,VALID,18.4759,VALID,142,VALID,0.978906,
2014-02-10, 02:01:05,VALID,914.846,VALID,0,VALID,92.4644,VALID,0,VALID,18.5149,VALID,142,VALID,1.33906,
2014-02-10, 02:02:05,VALID,914.834,VALID,0,VALID,92.3348,VALID,0,VALID,18.5149,VALID,133,VALID,0.782031,
2014-02-10, 02:03:05,VALID,914.822,VALID,0,VALID,92.2357,VALID,0,VALID,18.5748,VALID,143,VALID,0.857422,
2014-02-10, 02:04:05,VALID,914.836,VALID,0,VALID,91.9689,VALID,0,VALID,18.5539,VALID,125,VALID,0.869922,
2014-02-10, 02:05:05,VALID,914.822,VALID,0,VALID,91.9841,VALID,0,VALID,18.5734,VALID,127,VALID,1.10234,
2014-02-10, 02:06:05,VALID,914.815,VALID,0,VALID,91.7478,VALID,0,VALID,18.5734,VALID,127,VALID,0.947266,
2014-02-10, 02:07:05,VALID,914.815,VALID,0,VALID,91.6945,VALID,0,VALID,18.5344,VALID,126,VALID,0.905859,
2014-02-10, 02:08:05,VALID,914.824,VALID,0,VALID,91.6792,VALID,0,VALID,18.5149,VALID,128,VALID,0.710156,
2014-02-10, 02:09:05,VALID,914.874,VALID,0,VALID,91.6563,VALID,0,VALID,18.4759,VALID,117,VALID,0.710156,
2014-02-10, 02:10:05,VALID,914.856,VALID,0,VALID,91.7935,VALID,0,VALID,18.4369,VALID,116,VALID,0.7,
2014-02-10, 02:11:05,VALID,914.86,VALID,0,VALID,92.068,VALID,0,VALID,18.4174,VALID,116,VALID,0.756641,
2014-02-10, 02:12:05,VALID,914.876,VALID,0,VALID,92.2662,VALID,0,VALID,18.4369,VALID,118,VALID,0.583203,
2014-02-10, 02:13:05,VALID,914.839,VALID,0,VALID,92.5025,VALID,0,VALID,18.4578,VALID,118,VALID,1.02734,
2014-02-10, 02:14:05,VALID,914.833,VALID,0,VALID,92.4339,VALID,0,VALID,18.4773,VALID,116,VALID,1.27305,
2014-02-10, 02:15:05,VALID,914.845,VALID,0,VALID,92.3653,VALID,0,VALID,18.4188,VALID,135,VALID,1.27305,
2014-02-10, 02:16:05,VALID,914.82,VALID,0,VALID,92.5635,VALID,0,VALID,18.3979,VALID,129,VALID,1.87305,
2014-02-10, 02:17:05,VALID,914.832,VALID,0,VALID,92.4644,VALID,0,VALID,18.3589,VALID,141,VALID,1.04492,
2014-02-10, 02:18:05,VALID,914.838,VALID,0,VALID,92.4492,VALID,0,VALID,18.2796,VALID,139,VALID,1.18164,
2014-02-10, 02:19:05,VALID,914.836,VALID,0,VALID,92.5711,VALID,0,VALID,18.2406,VALID,141,VALID,1.09883,
2014-02-10, 02:20:05,VALID,914.83,VALID,0,VALID,92.6397,VALID,0,VALID,18.242,VALID,133,VALID,1.21055,
2014-02-10, 02:21:05,VALID,914.797,VALID,0,VALID,92.6779,VALID,0,VALID,18.164,VALID,131,VALID,1.10586,
2014-02-10, 02:22:05,VALID,914.818,VALID,0,VALID,92.838,VALID,0,VALID,18.1055,VALID,128,VALID,1.36016,
2014-02-10, 02:23:05,VALID,914.807,VALID,0,VALID,92.8227,VALID,0,VALID,18.0679,VALID,123,VALID,1.2082,
2014-02-10, 02:24:05,VALID,914.8,VALID,0,VALID,93.0514,VALID,0,VALID,18.0275,VALID,119,VALID,1.06211,
2014-02-10, 02:25:05,VALID,914.799,VALID,0,VALID,93.4859,VALID,0,VALID,18.008,VALID,122,VALID,1.4332,
2014-02-10, 02:26:05,VALID,914.811,VALID,0,VALID,93.6384,VALID,0,VALID,18.0679,VALID,118,VALID,1.32344,
2014-02-10, 02:27:05,VALID,914.782,VALID,0,VALID,93.6918,VALID,0,VALID,18.047,VALID,121,VALID,1.27578,
2014-02-10, 02:28:05,VALID,914.751,VALID,0,VALID,93.9052,VALID,0,VALID,18.1069,VALID,124,VALID,1.56016,
2014-02-10, 02:29:05,VALID,914.765,VALID,0,VALID,94.0043,VALID,0,VALID,18.125,VALID,124,VALID,1.35,
2014-02-10, 02:30:05,VALID,914.792,VALID,0,VALID,93.7604,VALID,0,VALID,18.1849,VALID,123,VALID,1.26445,
2014-02-10, 02:31:05,VALID,914.765,VALID,0,VALID,93.4478,VALID,0,VALID,18.2044,VALID,122,VALID,1.2332,
2014-02-10, 02:32:05,VALID,914.762,VALID,0,VALID,92.9371,VALID,0,VALID,18.2044,VALID,117,VALID,1.10703,
2014-02-10, 02:33:05,VALID,914.77,VALID,0,VALID,92.7312,VALID,0,VALID,18.1849,VALID,112,VALID,1.28437,
2014-02-10, 02:34:05,VALID,914.754,VALID,0,VALID,92.655,VALID,0,VALID,18.125,VALID,113,VALID,1.3043,
2014-02-10, 02:35:05,VALID,914.756,VALID,0,VALID,93.0285,VALID,0,VALID,18.125,VALID,113,VALID,1.43281,
2014-02-10, 02:36:05,VALID,914.767,VALID,0,VALID,92.8685,VALID,0,VALID,18.125,VALID,121,VALID,1.425,
2014-02-10, 02:37:05,VALID,914.782,VALID,0,VALID,93.0362,VALID,0,VALID,18.1849,VALID,132,VALID,1.66562,
2014-02-10, 02:38:05,VALID,914.761,VALID,0,VALID,92.8685,VALID,0,VALID,18.1835,VALID,136,VALID,1.38711,
2014-02-10, 02:39:05,VALID,914.785,VALID,0,VALID,92.716,VALID,0,VALID,18.203,VALID,146,VALID,1.06328,
2014-02-10, 02:40:05,VALID,914.749,VALID,0,VALID,92.5864,VALID,0,VALID,18.2433,VALID,139,VALID,1.39609,
2014-02-10, 02:41:05,VALID,914.777,VALID,0,VALID,92.4797,VALID,0,VALID,18.2628,VALID,144,VALID,1.05703,
2014-02-10, 02:42:05,VALID,914.787,VALID,0,VALID,92.4187,VALID,0,VALID,18.2615,VALID,132,VALID,1.17813,
2014-02-10, 02:43:05,VALID,914.779,VALID,0,VALID,92.2586,VALID,0,VALID,18.3213,VALID,146,VALID,0.639844,
2014-02-10, 02:44:05,VALID,914.811,VALID,0,VALID,92.1442,VALID,0,VALID,18.3408,VALID,138,VALID,1.02109,
2014-02-10, 02:45:05,VALID,914.779,VALID,0,VALID,92.0527,VALID,0,VALID,18.3603,VALID,137,VALID,1.28633,
2014-02-10, 02:46:05,VALID,914.797,VALID,0,VALID,91.9841,VALID,0,VALID,18.3408,VALID,129,VALID,1.46016,
2014-02-10, 02:47:05,VALID,914.778,VALID,0,VALID,91.9003,VALID,0,VALID,18.3004,VALID,128,VALID,1.41445,
2014-02-10, 02:48:05,VALID,914.786,VALID,0,VALID,91.8622,VALID,0,VALID,18.3213,VALID,125,VALID,0.957031,
2014-02-10, 02:49:05,VALID,914.771,VALID,0,VALID,91.9079,VALID,0,VALID,18.2823,VALID,117,VALID,1.25156,
2014-02-10, 02:50:05,VALID,914.757,VALID,0,VALID,92.0451,VALID,0,VALID,18.2225,VALID,123,VALID,1.54766,
2014-02-10, 02:51:05,VALID,914.746,VALID,0,VALID,92.0985,VALID,0,VALID,18.2044,VALID,121,VALID,1.325,
2014-02-10, 02:52:05,VALID,914.747,VALID,0,VALID,92.4263,VALID,0,VALID,18.1445,VALID,129,VALID,1.84648,
2014-02-10, 02:53:05,VALID,914.748,VALID,0,VALID,92.594,VALID,0,VALID,18.1849,VALID,133,VALID,1.6332,
2014-02-10, 02:54:05,VALID,914.695,VALID,0,VALID,92.6169,VALID,0.107441,VALID,18.2016,VALID,134,VALID,1.60664,
2014-02-10, 02:55:05,VALID,914.738,VALID,0,VALID,92.5025,VALID,0.107441,VALID,18.2225,VALID,139,VALID,1.50312,
2014-02-10, 02:56:05,VALID,914.746,VALID,0,VALID,92.4797,VALID,0.107441,VALID,18.2809,VALID,139,VALID,1.23789,
2014-02-10, 02:57:05,VALID,914.712,VALID,0,VALID,92.3272,VALID,0,VALID,18.2796,VALID,142,VALID,1.11094,
2014-02-10, 02:58:05,VALID,914.669,VALID,0,VALID,92.2357,VALID,0.107441,VALID,18.2796,VALID,144,VALID,1.45938,
2014-02-10, 02:59:05,VALID,914.712,VALID,0,VALID,92.1214,VALID,0.107441,VALID,18.3185,VALID,141,VALID,0.904688,
2014-02-10, 03:00:05,VALID,914.726,VALID,0,VALID,92.0146,VALID,0.107441,VALID,18.299,VALID,137,VALID,1.30234,
2014-02-10, 03:01:05,VALID,914.724,VALID,0,VALID,92.0909,VALID,0.107441,VALID,18.3575,VALID,135,VALID,1.32617,
2014-02-10, 03:02:05,VALID,914.719,VALID,0,VALID,91.9079,VALID,0.107441,VALID,18.3965,VALID,133,VALID,1.19844,
2014-02-10, 03:03:05,VALID,914.734,VALID,0,VALID,91.7021,VALID,0.107441,VALID,18.4369,VALID,133,VALID,1.27422,
2014-02-10, 03:04:05,VALID,914.763,VALID,0,VALID,91.6106,VALID,0.107441,VALID,18.4759,VALID,130,VALID,1.20508,
2014-02-10, 03:05:05,VALID,914.784,VALID,0,VALID,91.5115,VALID,0.107441,VALID,18.5135,VALID,127,VALID,1.36406,
2014-02-10, 03:06:05,VALID,914.724,VALID,0,VALID,91.3514,VALID,0.107441,VALID,18.533,VALID,126,VALID,1.08008,
2014-02-10, 03:07:05,VALID,914.78,VALID,0,VALID,91.1989,VALID,0.107441,VALID,18.5525,VALID,126,VALID,1.19844,
2014-02-10, 03:08:05,VALID,914.785,VALID,0,VALID,91.0083,VALID,0.107441,VALID,18.5539,VALID,127,VALID,0.814062,
2014-02-10, 03:09:05,VALID,914.75,VALID,0,VALID,90.7568,VALID,0,VALID,18.4954,VALID,127,VALID,0.735547,
2014-02-10, 03:10:05,VALID,914.715,VALID,0,VALID,90.3299,VALID,0,VALID,18.3979,VALID,127,VALID,0.376953,
2014-02-10, 03:11:05,VALID,914.729,VALID,0,VALID,90.5738,VALID,0,VALID,18.3004,VALID,127,VALID,0.426953,
2014-02-10, 03:12:05,VALID,914.723,VALID,0,VALID,91.1761,VALID,0,VALID,18.2225,VALID,127,VALID,0.573438,
2014-02-10, 03:13:05,VALID,914.729,VALID,0,VALID,91.4581,VALID,0,VALID,18.1459,VALID,126,VALID,0.8,
2014-02-10, 03:14:05,VALID,914.697,VALID,0,VALID,92.2205,VALID,0,VALID,18.1055,VALID,117,VALID,1.26758,
2014-02-10, 03:15:05,VALID,914.724,VALID,0,VALID,92.7465,VALID,0,VALID,18.1264,VALID,113,VALID,1.28906,
2014-02-10, 03:16:05,VALID,914.693,VALID,0,VALID,92.8532,VALID,0,VALID,18.1445,VALID,121,VALID,1.10312,
2014-02-10, 03:17:05,VALID,914.726,VALID,0,VALID,92.5864,VALID,0,VALID,18.1445,VALID,122,VALID,0.798047,
2014-02-10, 03:18:05,VALID,914.717,VALID,0,VALID,92.6397,VALID,0,VALID,18.164,VALID,122,VALID,1.01484,
2014-02-10, 03:19:05,VALID,914.685,VALID,0,VALID,92.6321,VALID,0,VALID,18.2044,VALID,122,VALID,1.17539,
2014-02-10, 03:20:05,VALID,914.726,VALID,0,VALID,92.4949,VALID,0,VALID,18.164,VALID,133,VALID,1.03437,
2014-02-10, 03:21:05,VALID,914.708,VALID,0,VALID,92.4263,VALID,0,VALID,18.1445,VALID,138,VALID,1.18789,
2014-02-10, 03:22:05,VALID,914.695,VALID,0,VALID,92.4263,VALID,0,VALID,18.1445,VALID,148,VALID,1.01914,
2014-02-10, 03:23:05,VALID,914.703,VALID,0,VALID,92.3424,VALID,0,VALID,18.1459,VALID,145,VALID,0.533203,
2014-02-10, 03:24:05,VALID,914.72,VALID,0,VALID,92.1671,VALID,0,VALID,18.1055,VALID,143,VALID,0.736328,
2014-02-10, 03:25:05,VALID,914.713,VALID,0,VALID,92.007,VALID,0,VALID,18.047,VALID,143,VALID,0.483203,
2014-02-10, 03:26:05,VALID,914.728,VALID,0,VALID,92.1366,VALID,0,VALID,17.9886,VALID,143,VALID,1.08008,
2014-02-10, 03:27:05,VALID,914.697,VALID,0,VALID,92.6245,VALID,0,VALID,17.9301,VALID,143,VALID,1.08125,
2014-02-10, 03:28:05,VALID,914.705,VALID,0,VALID,92.8608,VALID,0,VALID,17.8716,VALID,143,VALID,1.00352,
2014-02-10, 03:29:05,VALID,914.672,VALID,0,VALID,93.0972,VALID,0,VALID,17.834,VALID,147,VALID,0.762109,
2014-02-10, 03:30:05,VALID,914.661,VALID,0,VALID,93.364,VALID,0,VALID,17.795,VALID,148,VALID,0.622266,
2014-02-10, 03:31:05,VALID,914.65,VALID,0,VALID,93.6384,VALID,0,VALID,17.7157,VALID,148,VALID,0.519922,
2014-02-10, 03:32:05,VALID,914.666,VALID,0,VALID,94.0653,VALID,0,VALID,17.6975,VALID,148,VALID,0.613672,
2014-02-10, 03:33:05,VALID,914.664,VALID,0,VALID,94.233,VALID,0,VALID,17.6585,VALID,148,VALID,0.721875,
2014-02-10, 03:34:05,VALID,914.648,VALID,0,VALID,94.2864,VALID,0,VALID,17.6196,VALID,143,VALID,0.856641,
2014-02-10, 03:35:05,VALID,914.623,VALID,0,VALID,94.4008,VALID,0,VALID,17.5598,VALID,138,VALID,1.01563,
2014-02-10, 03:36:05,VALID,914.628,VALID,0,VALID,94.6066,VALID,0,VALID,17.5806,VALID,139,VALID,0.970312,
2014-02-10, 03:37:05,VALID,914.609,VALID,0,VALID,94.7667,VALID,0,VALID,17.5598,VALID,139,VALID,1.02461,
2014-02-10, 03:38:05,VALID,914.602,VALID,0,VALID,94.8353,VALID,0,VALID,17.5598,VALID,136,VALID,1.06719,
2014-02-10, 03:39:05,VALID,914.611,VALID,0,VALID,94.9268,VALID,0,VALID,17.5792,VALID,136,VALID,0.906641,
2014-02-10, 03:40:05,VALID,914.571,VALID,0,VALID,94.9725,VALID,0,VALID,17.6196,VALID,130,VALID,1.20156,
2014-02-10, 03:41:05,VALID,914.612,VALID,0,VALID,94.8582,VALID,0,VALID,17.6391,VALID,118,VALID,0.788672,
2014-02-10, 03:42:05,VALID,914.597,VALID,0,VALID,94.7133,VALID,0,VALID,17.6391,VALID,118,VALID,0.774609,
2014-02-10, 03:43:05,VALID,914.574,VALID,0,VALID,94.7209,VALID,0,VALID,17.678,VALID,118,VALID,1.08008,
2014-02-10, 03:44:05,VALID,914.569,VALID,0,VALID,94.6676,VALID,0,VALID,17.6975,VALID,120,VALID,1.2793,